TimeMST,TemperatureF,Dew PointF,Humidity,Sea Level PressureIn,VisibilityMPH,Wind Direction,Wind SpeedMPH,Gust SpeedMPH,PrecipitationIn,Events,Conditions,WindDirDegrees,DateUTC
12:51 AM,53.1,33.1,47,30.19,10.0,ENE,3.5,-,N/A,,Clear,70,2013-12-24 07:51:00
1:51 AM,48.0,36.0,63,30.19,10.0,Calm,Calm,-,N/A,,Clear,0,2013-12-24 08:51:00
2:51 AM,48.9,36.0,61,30.18,10.0,West,3.5,-,N/A,,Clear,270,2013-12-24 09:51:00
3:51 AM,48.0,36.0,63,30.18,10.0,Calm,Calm,-,N/A,,Clear,0,2013-12-24 10:51:00
4:51 AM,46.0,36.0,68,30.17,10.0,Calm,Calm,-,N/A,,Clear,0,2013-12-24 11:51:00
5:51 AM,46.0,36.0,68,30.17,10.0,Calm,Calm,-,N/A,,Clear,0,2013-12-24 12:51:00
6:51 AM,45.0,35.1,68,30.19,10.0,Calm,Calm,-,N/A,,Clear,0,2013-12-24 13:51:00
7:51 AM,45.0,36.0,71,30.19,10.0,Calm,Calm,-,N/A,,Clear,0,2013-12-24 14:51:00
8:51 AM,51.1,34.0,52,30.21,10.0,Calm,Calm,-,N/A,,Clear,0,2013-12-24 15:51:00
9:51 AM,59.0,30.0,33,30.21,10.0,ESE,3.5,-,N/A,,Clear,110,2013-12-24 16:51:00
10:51 AM,61.0,30.0,31,30.21,10.0,Calm,Calm,-,N/A,,Clear,0,2013-12-24 17:51:00
11:51 AM,64.9,28.0,25,30.17,10.0,NE,6.9,-,N/A,,Clear,40,2013-12-24 18:51:00
12:51 PM,66.9,26.1,21,30.14,10.0,NNE,6.9,-,N/A,,Partly Cloudy,20,2013-12-24 19:51:00
1:51 PM,68.0,26.1,21,30.12,10.0,ENE,6.9,-,N/A,,Partly Cloudy,70,2013-12-24 20:51:00
2:51 PM,70.0,26.1,19,30.09,10.0,Calm,Calm,-,N/A,,Partly Cloudy,0,2013-12-24 21:51:00
3:51 PM,69.1,25.0,19,30.08,10.0,Calm,Calm,-,N/A,,Partly Cloudy,0,2013-12-24 22:51:00
4:51 PM,69.1,27.0,21,30.08,10.0,WSW,4.6,-,N/A,,Partly Cloudy,240,2013-12-24 23:51:00
5:51 PM,66.0,28.0,24,30.09,10.0,West,6.9,-,N/A,,Partly Cloudy,280,2013-12-25 00:51:00
6:51 PM,62.1,33.1,34,30.10,10.0,Variable,3.5,-,N/A,,Partly Cloudy,0,2013-12-25 01:51:00
7:51 PM,61.0,32.0,34,30.11,10.0,West,3.5,-,N/A,,Clear,270,2013-12-25 02:51:00
8:51 PM,59.0,32.0,36,30.12,10.0,West,4.6,-,N/A,,Clear,260,2013-12-25 03:51:00
9:51 PM,55.0,36.0,49,30.13,10.0,SSW,3.5,-,N/A,,Clear,210,2013-12-25 04:51:00
10:51 PM,53.1,36.0,52,30.14,10.0,East,3.5,-,N/A,,Clear,100,2013-12-25 05:51:00
11:51 PM,53.1,37.0,55,30.13,10.0,ENE,3.5,-,N/A,,Clear,70,2013-12-25 06:51:00